Olympia, WA

6:26 AM PDT on October 18, 2017 (GMT -0700)
Olympia

Weather History for KOLM - April, 2013

Change the Weather History Date:

Sunday, April 28, 2013

  Actual Average Record
Temperature  
Mean Temperature 54 °F 50 °F  
Max Temperature 59 °F 61 °F 79 °F (1968)
Min Temperature 48 °F 39 °F 26 °F (1973)
Degree Days  
Heating Degree Days 11 15  
Month to date heating degree days 461 472  
Since 1 July heating degree days 4757 4830  
Cooling Degree Days 0 0  
Month to date cooling degree days 0 0  
Year to date cooling degree days 0 0  
Growing Degree Days 4 (Base 50)    
Moisture  
Dew Point 44 °F    
Average Humidity 76    
Maximum Humidity 100    
Minimum Humidity 51    
Precipitation  
Precipitation 0.20 in 0.09 in 0.91 in (1959)
Month to date precipitation 4.52 3.36  
Year to date precipitation 16.35 21.76  
Sea Level Pressure  
Sea Level Pressure 30.18 in    
Wind  
Wind Speed 9 mph (WSW)    
Max Wind Speed 20 mph    
Max Gust Speed 26 mph    
Visibility 9 miles    
Events Rain    
T = Trace of Precipitation, MM = Missing Value Source: NWS Daily Summary

Daily Weather History Graph

Daily Weather History Graph

Search for Another Location

Airport or City:

Trip Planner

Search our weather history database for the weather conditions in past years. The results will help you decide how hot, cold, wet, or windy it might be!

Date:

Astronomy

Apr. 28, 2013 Rise Set
Actual Time 6:00 AM PDT 8:18 PM PDT
Civil Twilight 5:26 AM PDT 8:52 PM PDT
Nautical Twilight 4:45 AM PDT 9:34 PM PDT
Astronomical Twilight 3:58 AM PDT 10:21 PM PDT
Moon No Moon Rise 8:15 AM PDT (4/28)
Length of Visible Light 15h 25m
Length of Day
14h 18m
Waning Gibbous, 88% of the Moon is Illuminated
Apr 28
Waning Gibbous
May 2
Last Quarter
May 9
New
May 17
First Quarter
May 24
Full

Hourly Weather History & Observations

Time (PDT) Temp. Dew Point Humidity Pressure Visibility Wind Dir Wind Speed Gust Speed Precip Events Conditions
12:54 AM 50.0 °F 48.0 °F 93% 30.24 in 10.0 mi SW 8.1 mph - N/A   Overcast
1:42 AM 48.9 °F 48.0 °F 97% 30.23 in 10.0 mi SW 4.6 mph - N/A   Mostly Cloudy
1:54 AM 48.9 °F 48.0 °F 97% 30.23 in 10.0 mi WSW 5.8 mph - N/A   Mostly Cloudy
2:26 AM 48.9 °F 48.0 °F 97% 30.23 in 10.0 mi WSW 4.6 mph - N/A   Mostly Cloudy
2:54 AM 48.9 °F 48.0 °F 97% 30.22 in 10.0 mi SW 8.1 mph - N/A   Overcast
3:54 AM 48.9 °F 46.9 °F 93% 30.22 in 10.0 mi SSW 4.6 mph - N/A   Overcast
4:54 AM 48.9 °F 46.9 °F 93% 30.22 in 10.0 mi SW 4.6 mph - N/A   Overcast
5:54 AM 48.2 °F 46.4 °F 93% 30.21 in 10.0 mi WSW 6.9 mph - N/A   Overcast
6:54 AM 48.9 °F 46.9 °F 93% 30.22 in 9.0 mi WSW 4.6 mph - 0.02 in   Overcast
7:31 AM 50.0 °F 48.0 °F 93% 30.22 in 10.0 mi WSW 4.6 mph - N/A   Overcast
7:38 AM 50.0 °F 46.9 °F 89% 30.22 in 10.0 mi Variable 5.8 mph - N/A   Overcast
7:54 AM 51.1 °F 48.0 °F 89% 30.23 in 10.0 mi WSW 4.6 mph - 0.00 in Rain Light Rain
8:54 AM 52.0 °F 46.9 °F 83% 30.23 in 10.0 mi WSW 8.1 mph - 0.00 in   Mostly Cloudy
9:54 AM 53.1 °F 45.0 °F 74% 30.23 in 10.0 mi SW 9.2 mph - N/A   Overcast
10:54 AM 53.1 °F 44.1 °F 71% 30.23 in 10.0 mi WSW 8.1 mph - 0.00 in   Mostly Cloudy
11:54 AM 55.0 °F 39.9 °F 57% 30.22 in 10.0 mi West 13.8 mph - N/A   Mostly Cloudy
12:54 PM 55.9 °F 37.9 °F 51% 30.22 in 10.0 mi West 15.0 mph 21.9 mph N/A   Mostly Cloudy
1:54 PM 57.0 °F 39.9 °F 53% 30.22 in 10.0 mi West 12.7 mph 21.9 mph N/A   Mostly Cloudy
2:54 PM 57.0 °F 39.0 °F 51% 30.21 in 10.0 mi West 11.5 mph 19.6 mph N/A   Mostly Cloudy
3:54 PM 57.0 °F 39.9 °F 53% 30.18 in 10.0 mi WSW 11.5 mph - N/A   Mostly Cloudy
4:54 PM 57.0 °F 39.0 °F 51% 30.17 in 10.0 mi West 11.5 mph 21.9 mph N/A   Overcast
5:54 PM 55.0 °F 39.0 °F 55% 30.16 in 10.0 mi West 9.2 mph - N/A   Overcast
6:54 PM 54.0 °F 39.9 °F 59% 30.13 in 10.0 mi WSW 9.2 mph - N/A   Overcast
7:54 PM 51.1 °F 43.0 °F 74% 30.11 in 9.0 mi WSW 12.7 mph - 0.00 in Rain Light Rain
8:54 PM 48.9 °F 46.0 °F 90% 30.08 in 7.0 mi SSW 5.8 mph - 0.01 in Rain Light Rain
9:54 PM 48.0 °F 45.0 °F 89% 30.05 in 10.0 mi SSW 6.9 mph - 0.03 in Rain Light Rain
10:18 PM 48.0 °F 45.0 °F 89% 30.04 in 6.0 mi SW 4.6 mph - 0.02 in Rain Light Rain
10:54 PM 48.0 °F 46.0 °F 93% 30.03 in 6.0 mi South 6.9 mph - 0.07 in Rain Light Rain
11:54 PM 48.0 °F 46.0 °F 93% 29.98 in 7.0 mi SSW 10.4 mph - 0.05 in Rain Light Rain